ISR124 LLBG-LGAV

Flight info

Callsign ISR124
Flight time 1h 51m
Altitude 32000
Route SUVAS N128 OTHON DCT USINI UL995 VARIX
Aircraft A20N/M-SDE2E3FGHIRWXY/LB1

Departure

Time 2026-05-05 11:32
Airport Ben Gurion International Airport (LLBG)

Arrival

Time 2026-05-05 13:23
Airport Athens Eleftherios Venizelos International Airport (LGAV)
Time Latitude Longitude Altitude Speed Heading
2026-05-05 11:10 32.00629 34.87148 120 ft 0 kts 189°
2026-05-05 11:22 32.00645 34.87151 115 ft 2 kts 189°
2026-05-05 11:22 32.00661 34.87154 116 ft 2 kts 187°
2026-05-05 11:22 32.00677 34.87156 116 ft 2 kts 185°
2026-05-05 11:23 32.00694 34.87157 117 ft 2 kts 182°
2026-05-05 11:23 32.00710 34.87158 120 ft 2 kts 211°
2026-05-05 11:23 32.00722 34.87172 115 ft 2 kts 259°
2026-05-05 11:23 32.00722 34.87174 115 ft 2 kts 258°
2026-05-05 11:24 32.00719 34.87157 116 ft 2 kts 258°
2026-05-05 11:24 32.00719 34.87154 117 ft 0 kts 258°
2026-05-05 11:26 32.00718 34.87147 118 ft 3 kts 259°
2026-05-05 11:26 32.00739 34.87104 118 ft 10 kts 335°
2026-05-05 11:27 32.00796 34.87121 116 ft 8 kts 31°
2026-05-05 11:27 32.00877 34.87177 118 ft 18 kts 33°
2026-05-05 11:27 32.00867 34.87321 118 ft 21 kts 122°
2026-05-05 11:27 32.00770 34.87509 119 ft 33 kts 122°
2026-05-05 11:28 32.00665 34.87707 118 ft 14 kts 120°
2026-05-05 11:28 32.00592 34.87854 118 ft 25 kts 116°
2026-05-05 11:28 32.00644 34.87957 118 ft 20 kts 32°
2026-05-05 11:28 32.00795 34.88068 120 ft 25 kts 31°
2026-05-05 11:29 32.00952 34.88185 118 ft 29 kts 31°
2026-05-05 11:29 32.01142 34.88320 119 ft 21 kts 31°
2026-05-05 11:29 32.01268 34.88407 119 ft 27 kts 28°
2026-05-05 11:29 32.01413 34.88599 118 ft 35 kts 55°
2026-05-05 11:30 32.01499 34.88874 119 ft 37 kts 80°
2026-05-05 11:30 32.01551 34.89134 117 ft 22 kts 53°
2026-05-05 11:30 32.01693 34.89139 117 ft 24 kts 347°
2026-05-05 11:30 32.01737 34.89048 116 ft 0 kts 259°
2026-05-05 11:31 32.01737 34.89046 116 ft 1 kts 259°
2026-05-05 11:31 32.01723 34.88948 121 ft 39 kts 261°
2026-05-05 11:31 32.01636 34.88374 121 ft 100 kts 260°
2026-05-05 11:31 32.01486 34.87392 196 ft 135 kts 260°
2026-05-05 11:32 32.01332 34.86306 639 ft 141 kts 259°
2026-05-05 11:32 32.01177 34.85112 1080 ft 150 kts 258°
2026-05-05 11:32 32.00936 34.83961 1829 ft 140 kts 254°
2026-05-05 11:32 32.00652 34.82802 2217 ft 155 kts 254°
2026-05-05 11:33 32.00345 34.81511 2540 ft 173 kts 255°
2026-05-05 11:33 32.00034 34.80077 2868 ft 191 kts 256°
2026-05-05 11:33 31.99702 34.78461 3183 ft 215 kts 257°
2026-05-05 11:33 31.99350 34.76650 3618 ft 238 kts 261°
2026-05-05 11:34 31.99327 34.74671 4468 ft 245 kts 277°
2026-05-05 11:34 31.99793 34.72740 5542 ft 249 kts 288°
2026-05-05 11:34 32.00409 34.70810 6530 ft 253 kts 288°
2026-05-05 11:34 32.01029 34.68846 7378 ft 260 kts 288°
2026-05-05 11:35 32.01659 34.66833 7780 ft 262 kts 288°
2026-05-05 11:35 32.02278 34.64821 7942 ft 261 kts 286°
2026-05-05 11:35 32.02686 34.62739 7995 ft 261 kts 276°
2026-05-05 11:35 32.02817 34.60618 7999 ft 260 kts 272°
2026-05-05 11:36 32.02919 34.58485 7992 ft 260 kts 273°
2026-05-05 11:36 32.03031 34.56362 7998 ft 260 kts 273°
2026-05-05 11:36 32.03146 34.54240 7991 ft 260 kts 273°
2026-05-05 11:36 32.03260 34.52113 7997 ft 260 kts 273°
2026-05-05 11:37 32.03374 34.49979 8049 ft 262 kts 273°
2026-05-05 11:37 32.03488 34.47828 8586 ft 264 kts 273°
2026-05-05 11:37 32.03602 34.45674 9645 ft 263 kts 273°
2026-05-05 11:37 32.03716 34.43497 10456 ft 273 kts 274°
2026-05-05 11:38 32.03846 34.41178 10845 ft 295 kts 274°
2026-05-05 11:38 32.03991 34.38690 11265 ft 312 kts 274°
2026-05-05 11:38 32.04140 34.36122 12119 ft 314 kts 274°
2026-05-05 11:38 32.04288 34.33544 13022 ft 317 kts 274°
2026-05-05 11:39 32.04436 34.30950 13892 ft 319 kts 274°
2026-05-05 11:39 32.04585 34.28318 14622 ft 323 kts 274°
2026-05-05 11:39 32.04762 34.25674 15366 ft 326 kts 278°
2026-05-05 11:39 32.05254 34.23054 16081 ft 329 kts 287°
2026-05-05 11:40 32.06116 34.20578 16790 ft 334 kts 296°
2026-05-05 11:40 32.07303 34.18204 17513 ft 338 kts 299°
2026-05-05 11:40 32.08546 34.15788 18228 ft 341 kts 299°
2026-05-05 11:40 32.09783 34.13423 18833 ft 346 kts 303°
2026-05-05 11:41 32.11177 34.11106 19444 ft 349 kts 304°
2026-05-05 11:41 32.12737 34.08883 20051 ft 353 kts 307°
2026-05-05 11:41 32.14299 34.06632 20659 ft 356 kts 306°
2026-05-05 11:41 32.15876 34.04361 21256 ft 359 kts 307°
2026-05-05 11:42 32.17478 34.02084 21840 ft 363 kts 307°
2026-05-05 11:42 32.19108 33.99792 22427 ft 366 kts 307°
2026-05-05 11:42 32.20757 33.97488 23010 ft 369 kts 307°
2026-05-05 11:42 32.22428 33.95159 23566 ft 373 kts 307°
2026-05-05 11:43 32.24111 33.92812 24058 ft 376 kts 307°
2026-05-05 11:43 32.25805 33.90451 24555 ft 378 kts 307°
2026-05-05 11:43 32.27509 33.88073 25025 ft 381 kts 307°
2026-05-05 11:43 32.29225 33.85675 25489 ft 383 kts 307°
2026-05-05 11:44 32.30952 33.83261 25940 ft 386 kts 307°
2026-05-05 11:44 32.32684 33.80838 26370 ft 389 kts 307°
2026-05-05 11:44 32.34440 33.78379 26837 ft 391 kts 307°
2026-05-05 11:44 32.36200 33.75914 27251 ft 394 kts 307°
2026-05-05 11:45 32.37971 33.73430 27668 ft 396 kts 307°
2026-05-05 11:45 32.39749 33.70935 28064 ft 399 kts 307°
2026-05-05 11:45 32.41544 33.68413 28469 ft 401 kts 307°
2026-05-05 11:45 32.43345 33.65880 28828 ft 404 kts 307°
2026-05-05 11:46 32.45159 33.63328 29186 ft 406 kts 307°
2026-05-05 11:46 32.46981 33.60762 29538 ft 408 kts 307°
2026-05-05 11:46 32.48813 33.58181 29897 ft 411 kts 307°
2026-05-05 11:46 32.50654 33.55585 30241 ft 413 kts 307°
2026-05-05 11:47 32.52500 33.52980 30585 ft 413 kts 307°
2026-05-05 11:47 32.54350 33.50369 30946 ft 414 kts 307°
2026-05-05 11:47 32.56201 33.47756 31331 ft 414 kts 307°
2026-05-05 11:47 32.58023 33.45180 31770 ft 412 kts 306°
2026-05-05 11:48 32.61693 33.39988 32021 ft 407 kts 306°
2026-05-05 11:48 32.65322 33.34841 32026 ft 407 kts 306°
2026-05-05 11:49 32.68929 33.29719 32024 ft 407 kts 306°
2026-05-05 11:49 32.72580 33.24530 32026 ft 407 kts 306°
2026-05-05 11:50 32.76199 33.19377 32020 ft 406 kts 306°
2026-05-05 11:50 32.79817 33.14221 32023 ft 406 kts 306°
2026-05-05 11:51 32.83412 33.09089 32029 ft 406 kts 306°
2026-05-05 11:51 32.87014 33.03939 32022 ft 406 kts 306°
2026-05-05 11:52 32.90622 32.98775 32021 ft 406 kts 306°
2026-05-05 11:52 32.93648 32.94437 32019 ft 406 kts 306°
2026-05-05 11:53 32.97253 32.89263 32020 ft 406 kts 306°
2026-05-05 11:53 33.00856 32.84085 32021 ft 406 kts 306°
2026-05-05 11:54 33.04434 32.78935 32023 ft 406 kts 306°
2026-05-05 11:54 33.08035 32.73745 32022 ft 406 kts 306°
2026-05-05 11:55 33.11630 32.68555 32022 ft 406 kts 306°
2026-05-05 11:55 33.15231 32.63349 32020 ft 406 kts 306°
2026-05-05 11:56 33.18828 32.58142 32020 ft 406 kts 306°
2026-05-05 11:56 33.22416 32.52940 32017 ft 406 kts 306°
2026-05-05 11:57 33.26008 32.47726 32022 ft 406 kts 307°
2026-05-05 11:57 33.29599 32.42506 32021 ft 406 kts 306°
2026-05-05 11:58 33.33181 32.37291 32016 ft 406 kts 307°
2026-05-05 11:58 33.36765 32.32066 32019 ft 406 kts 307°
2026-05-05 11:59 33.40349 32.26833 32013 ft 406 kts 307°
2026-05-05 11:59 33.43928 32.21601 32011 ft 406 kts 307°
2026-05-05 12:00 33.47507 32.16360 32012 ft 406 kts 307°
2026-05-05 12:00 33.51083 32.11118 32011 ft 407 kts 307°
2026-05-05 12:01 33.54659 32.05867 32015 ft 406 kts 307°
2026-05-05 12:01 33.58214 32.00639 32016 ft 407 kts 307°
2026-05-05 12:02 33.61793 31.95368 32012 ft 408 kts 307°
2026-05-05 12:02 33.65370 31.90093 32013 ft 408 kts 307°
2026-05-05 12:03 33.68946 31.84812 32014 ft 408 kts 307°
2026-05-05 12:03 33.72526 31.79517 32016 ft 408 kts 307°
2026-05-05 12:04 33.76105 31.74215 32022 ft 409 kts 307°
2026-05-05 12:04 33.79688 31.68900 32018 ft 409 kts 307°
2026-05-05 12:05 33.83272 31.63576 32018 ft 410 kts 307°
2026-05-05 12:05 33.86855 31.58245 32022 ft 410 kts 307°
2026-05-05 12:06 33.90411 31.52946 32020 ft 410 kts 307°
2026-05-05 12:06 33.93994 31.47600 32019 ft 410 kts 307°
2026-05-05 12:07 33.97571 31.42255 32020 ft 410 kts 307°
2026-05-05 12:07 34.01146 31.36903 32016 ft 410 kts 307°
2026-05-05 12:08 34.04731 31.31531 32016 ft 411 kts 307°
2026-05-05 12:08 34.08307 31.26162 32019 ft 411 kts 307°
2026-05-05 12:09 34.11565 31.21265 32015 ft 411 kts 307°
2026-05-05 12:09 34.15142 31.15880 32019 ft 411 kts 307°
2026-05-05 12:10 34.18718 31.10488 32014 ft 411 kts 307°
2026-05-05 12:10 34.22296 31.05086 32017 ft 412 kts 307°
2026-05-05 12:11 34.25870 30.99678 32015 ft 412 kts 307°
2026-05-05 12:11 34.29451 30.94255 32018 ft 413 kts 307°
2026-05-05 12:12 34.33027 30.88830 32018 ft 413 kts 307°
2026-05-05 12:12 34.36612 30.83384 32020 ft 413 kts 307°
2026-05-05 12:13 34.40195 30.77933 32023 ft 414 kts 307°
2026-05-05 12:13 34.43774 30.72479 32020 ft 414 kts 307°
2026-05-05 12:14 34.47356 30.67013 32019 ft 414 kts 307°
2026-05-05 12:14 34.50942 30.61531 32020 ft 415 kts 307°
2026-05-05 12:15 34.54527 30.56043 32023 ft 415 kts 307°
2026-05-05 12:15 34.58109 30.50552 32023 ft 415 kts 307°
2026-05-05 12:16 34.61695 30.45045 32022 ft 416 kts 307°
2026-05-05 12:16 34.65277 30.39536 32024 ft 416 kts 307°
2026-05-05 12:17 34.68858 30.34019 32026 ft 416 kts 307°
2026-05-05 12:17 34.72417 30.28529 32024 ft 416 kts 307°
2026-05-05 12:18 34.76002 30.22989 32025 ft 416 kts 307°
2026-05-05 12:18 34.79581 30.17450 32024 ft 417 kts 307°
2026-05-05 12:19 34.83161 30.11901 32027 ft 417 kts 307°
2026-05-05 12:19 34.86740 30.06345 32024 ft 417 kts 307°
2026-05-05 12:20 34.90314 30.00788 32023 ft 417 kts 307°
2026-05-05 12:20 34.93890 29.95218 32022 ft 417 kts 307°
2026-05-05 12:21 34.97467 29.89638 32020 ft 417 kts 307°
2026-05-05 12:21 35.01038 29.84058 32024 ft 417 kts 307°
2026-05-05 12:22 35.04608 29.78473 32020 ft 418 kts 307°
2026-05-05 12:22 35.08180 29.72874 32021 ft 418 kts 307°
2026-05-05 12:23 35.11747 29.67275 32019 ft 418 kts 307°
2026-05-05 12:23 35.15316 29.61663 32021 ft 418 kts 307°
2026-05-05 12:24 35.18881 29.56048 32021 ft 418 kts 307°
2026-05-05 12:24 35.22444 29.50429 32022 ft 418 kts 307°
2026-05-05 12:25 35.26002 29.44807 32022 ft 418 kts 307°
2026-05-05 12:25 35.29566 29.39168 32024 ft 418 kts 307°
2026-05-05 12:26 35.33123 29.33531 32023 ft 418 kts 307°
2026-05-05 12:26 35.36677 29.27888 32022 ft 418 kts 307°
2026-05-05 12:27 35.40229 29.22239 32020 ft 418 kts 307°
2026-05-05 12:27 35.43777 29.16589 32015 ft 418 kts 307°
2026-05-05 12:28 35.47302 29.10966 32015 ft 418 kts 307°
2026-05-05 12:28 35.50847 29.05300 32013 ft 418 kts 307°
2026-05-05 12:29 35.54391 28.99629 32013 ft 419 kts 307°
2026-05-05 12:29 35.57931 28.93953 32014 ft 419 kts 307°
2026-05-05 12:30 35.61469 28.88272 32012 ft 419 kts 307°
2026-05-05 12:30 35.65009 28.82579 32013 ft 419 kts 307°
2026-05-05 12:31 35.68543 28.76886 32012 ft 419 kts 307°
2026-05-05 12:31 35.72076 28.71183 32012 ft 419 kts 307°
2026-05-05 12:32 35.75608 28.65476 32013 ft 419 kts 307°
2026-05-05 12:32 35.79134 28.59766 32015 ft 419 kts 307°
2026-05-05 12:33 35.82659 28.54050 32012 ft 419 kts 307°
2026-05-05 12:33 35.86178 28.48334 32014 ft 419 kts 307°
2026-05-05 12:34 35.89696 28.42609 32011 ft 418 kts 307°
2026-05-05 12:34 35.93206 28.36889 32009 ft 418 kts 307°
2026-05-05 12:35 35.96714 28.31163 32014 ft 418 kts 307°
2026-05-05 12:35 36.00191 28.25476 32017 ft 418 kts 307°
2026-05-05 12:36 36.03688 28.19749 32013 ft 417 kts 307°
2026-05-05 12:36 36.07177 28.14025 32008 ft 417 kts 307°
2026-05-05 12:37 36.10665 28.08293 32005 ft 417 kts 307°
2026-05-05 12:37 36.14142 28.02568 32003 ft 416 kts 307°
2026-05-05 12:38 36.17617 27.96838 32005 ft 416 kts 307°
2026-05-05 12:38 36.21087 27.91106 32004 ft 416 kts 307°
2026-05-05 12:39 36.23966 27.86344 32002 ft 415 kts 307°
2026-05-05 12:39 36.27428 27.80609 32010 ft 415 kts 307°
2026-05-05 12:40 36.30880 27.74881 32008 ft 415 kts 307°
2026-05-05 12:40 36.34327 27.69149 32007 ft 414 kts 307°
2026-05-05 12:41 36.37761 27.63431 32014 ft 413 kts 307°
2026-05-05 12:41 36.41194 27.57706 32009 ft 413 kts 307°
2026-05-05 12:42 36.44615 27.51990 32013 ft 412 kts 307°
2026-05-05 12:42 36.48030 27.46275 32018 ft 412 kts 307°
2026-05-05 12:43 36.51445 27.40554 32020 ft 412 kts 307°
2026-05-05 12:43 36.54855 27.34836 32024 ft 411 kts 307°
2026-05-05 12:44 36.58259 27.29117 32032 ft 411 kts 307°
2026-05-05 12:44 36.61633 27.23440 32037 ft 411 kts 307°
2026-05-05 12:45 36.65029 27.17716 32044 ft 411 kts 307°
2026-05-05 12:45 36.68090 27.11701 32043 ft 412 kts 300°
2026-05-05 12:46 36.70452 27.05190 32054 ft 413 kts 295°
2026-05-05 12:46 36.72739 26.98631 32045 ft 412 kts 296°
2026-05-05 12:47 36.75026 26.92070 32054 ft 413 kts 296°
2026-05-05 12:47 36.77300 26.85501 32054 ft 412 kts 296°
2026-05-05 12:48 36.79565 26.78937 32054 ft 412 kts 296°
2026-05-05 12:48 36.81825 26.72371 32062 ft 411 kts 296°
2026-05-05 12:49 36.84079 26.65814 32064 ft 411 kts 296°
2026-05-05 12:49 36.86330 26.59256 32057 ft 411 kts 296°
2026-05-05 12:50 36.88576 26.52704 32061 ft 410 kts 296°
2026-05-05 12:50 36.90813 26.46146 32059 ft 410 kts 296°
2026-05-05 12:51 36.93045 26.39580 32060 ft 410 kts 296°
2026-05-05 12:51 36.95268 26.33025 32064 ft 410 kts 296°
2026-05-05 12:52 36.97429 26.26428 31909 ft 412 kts 294°
2026-05-05 12:52 36.98460 26.23084 31658 ft 412 kts 294°
2026-05-05 12:52 36.99502 26.19752 31403 ft 412 kts 295°
2026-05-05 12:53 37.00561 26.16419 31158 ft 412 kts 295°
2026-05-05 12:53 37.01631 26.13088 30910 ft 413 kts 295°
2026-05-05 12:53 37.02706 26.09752 30669 ft 413 kts 295°
2026-05-05 12:53 37.03781 26.06420 30422 ft 412 kts 295°
2026-05-05 12:54 37.05901 25.99836 29907 ft 409 kts 295°
2026-05-05 12:54 37.06962 25.96536 29624 ft 408 kts 295°
2026-05-05 12:54 37.08016 25.93256 29345 ft 406 kts 295°
2026-05-05 12:55 37.09068 25.89976 29068 ft 405 kts 295°
2026-05-05 12:55 37.10114 25.86709 28795 ft 403 kts 295°
2026-05-05 12:55 37.11154 25.83458 28522 ft 402 kts 295°
2026-05-05 12:55 37.12191 25.80213 28248 ft 401 kts 295°
2026-05-05 12:56 37.13223 25.76978 27995 ft 399 kts 294°
2026-05-05 12:56 37.14252 25.73752 27719 ft 398 kts 294°
2026-05-05 12:56 37.15278 25.70531 27234 ft 397 kts 294°
2026-05-05 12:56 37.16298 25.67323 26525 ft 397 kts 294°
2026-05-05 12:57 37.17321 25.64105 25781 ft 396 kts 294°
2026-05-05 12:57 37.18336 25.60909 25061 ft 395 kts 294°
2026-05-05 12:57 37.19346 25.57721 24448 ft 391 kts 294°
2026-05-05 12:57 37.20346 25.54562 23874 ft 387 kts 294°
2026-05-05 12:58 37.21333 25.51443 23231 ft 383 kts 294°
2026-05-05 12:58 37.22311 25.48347 22556 ft 379 kts 294°
2026-05-05 12:58 37.23278 25.45284 21905 ft 376 kts 294°
2026-05-05 12:58 37.24234 25.42255 21265 ft 372 kts 294°
2026-05-05 12:59 37.25183 25.39244 20590 ft 370 kts 294°
2026-05-05 12:59 37.26132 25.36232 19835 ft 370 kts 293°
2026-05-05 12:59 37.27076 25.33235 19123 ft 370 kts 293°
2026-05-05 13:00 37.28929 25.27332 18341 ft 352 kts 293°
2026-05-05 13:00 37.29806 25.24530 18075 ft 350 kts 293°
2026-05-05 13:01 37.32495 25.15934 17272 ft 349 kts 293°
2026-05-05 13:01 37.33368 25.13135 17010 ft 348 kts 293°
2026-05-05 13:01 37.34249 25.10311 16758 ft 347 kts 293°
2026-05-05 13:01 37.35130 25.07483 16499 ft 347 kts 293°
2026-05-05 13:02 37.36008 25.04664 16254 ft 346 kts 293°
2026-05-05 13:02 37.36819 25.01817 16002 ft 346 kts 290°
2026-05-05 13:02 37.37570 24.98953 15752 ft 345 kts 291°
2026-05-05 13:02 37.38333 24.96094 15505 ft 345 kts 291°
2026-05-05 13:03 37.39097 24.93238 15261 ft 344 kts 291°
2026-05-05 13:03 37.39856 24.90387 15021 ft 344 kts 291°
2026-05-05 13:03 37.40614 24.87538 14778 ft 343 kts 291°
2026-05-05 13:03 37.41369 24.84692 14537 ft 342 kts 291°
2026-05-05 13:04 37.42118 24.81855 14297 ft 341 kts 291°
2026-05-05 13:04 37.42865 24.79029 14064 ft 341 kts 291°
2026-05-05 13:04 37.43614 24.76191 13815 ft 341 kts 291°
2026-05-05 13:04 37.44356 24.73373 13551 ft 339 kts 291°
2026-05-05 13:05 37.45099 24.70553 13295 ft 338 kts 291°
2026-05-05 13:05 37.45836 24.67747 13033 ft 338 kts 291°
2026-05-05 13:05 37.46572 24.64946 12764 ft 337 kts 291°
2026-05-05 13:05 37.47305 24.62152 12507 ft 336 kts 291°
2026-05-05 13:06 37.48036 24.59366 12251 ft 335 kts 291°
2026-05-05 13:06 37.48764 24.56585 11992 ft 333 kts 291°
2026-05-05 13:06 37.49487 24.53818 11736 ft 333 kts 291°
2026-05-05 13:06 37.50211 24.51050 11278 ft 334 kts 291°
2026-05-05 13:07 37.50937 24.48271 10665 ft 334 kts 291°
2026-05-05 13:07 37.51656 24.45506 10306 ft 327 kts 291°
2026-05-05 13:07 37.52345 24.42847 10169 ft 312 kts 291°
2026-05-05 13:07 37.53003 24.40303 10039 ft 298 kts 291°
2026-05-05 13:08 37.53630 24.37882 9740 ft 285 kts 291°
2026-05-05 13:08 37.54246 24.35514 9294 ft 283 kts 291°
2026-05-05 13:08 37.54859 24.33175 8947 ft 278 kts 293°
2026-05-05 13:08 37.55827 24.31158 8799 ft 268 kts 317°
2026-05-05 13:09 37.57376 24.29872 8676 ft 269 kts 341°
2026-05-05 13:09 37.59203 24.29476 8554 ft 266 kts 355°
2026-05-05 13:09 37.61038 24.29292 8430 ft 261 kts 355°
2026-05-05 13:09 37.62798 24.29115 8317 ft 246 kts 355°
2026-05-05 13:10 37.64465 24.28943 8093 ft 237 kts 355°
2026-05-05 13:10 37.66079 24.28770 7879 ft 229 kts 354°
2026-05-05 13:10 37.67654 24.28600 7758 ft 231 kts 354°
2026-05-05 13:10 37.69274 24.28425 7634 ft 231 kts 354°
2026-05-05 13:11 37.70852 24.28255 7503 ft 230 kts 354°
2026-05-05 13:11 37.72448 24.28083 7382 ft 230 kts 354°
2026-05-05 13:11 37.74042 24.27910 7259 ft 230 kts 354°
2026-05-05 13:11 37.75655 24.27736 7136 ft 229 kts 354°
2026-05-05 13:12 37.77223 24.27566 7010 ft 229 kts 354°
2026-05-05 13:12 37.78812 24.27395 6893 ft 229 kts 354°
2026-05-05 13:12 37.80399 24.27223 6770 ft 229 kts 354°
2026-05-05 13:12 37.81985 24.27052 6649 ft 228 kts 354°
2026-05-05 13:13 37.83567 24.26881 6529 ft 228 kts 354°
2026-05-05 13:13 37.85151 24.26709 6404 ft 229 kts 354°
2026-05-05 13:13 37.86734 24.26537 6273 ft 228 kts 354°
2026-05-05 13:13 37.88314 24.26366 6147 ft 228 kts 354°
2026-05-05 13:14 37.89898 24.26195 6017 ft 228 kts 354°
2026-05-05 13:14 37.91477 24.26024 5898 ft 228 kts 354°
2026-05-05 13:14 37.93056 24.25853 5764 ft 228 kts 354°
2026-05-05 13:14 37.94637 24.25681 5638 ft 228 kts 354°
2026-05-05 13:15 37.96217 24.25510 5512 ft 228 kts 354°
2026-05-05 13:15 37.97794 24.25339 5382 ft 227 kts 354°
2026-05-05 13:15 37.99365 24.25113 5266 ft 227 kts 347°
2026-05-05 13:15 38.00865 24.24520 5163 ft 227 kts 336°
2026-05-05 13:16 38.02308 24.23696 5009 ft 225 kts 335°
2026-05-05 13:16 38.03741 24.22895 4887 ft 226 kts 336°
2026-05-05 13:16 38.05185 24.22095 4764 ft 227 kts 334°
2026-05-05 13:16 38.06540 24.21083 4561 ft 226 kts 323°
2026-05-05 13:17 38.07743 24.19813 4314 ft 224 kts 320°
2026-05-05 13:17 38.08939 24.18527 4057 ft 226 kts 317°
2026-05-05 13:17 38.09797 24.16872 3808 ft 228 kts 289°
2026-05-05 13:17 38.10036 24.14879 3570 ft 230 kts 276°
2026-05-05 13:18 38.10175 24.12865 3323 ft 228 kts 276°
2026-05-05 13:18 38.10296 24.10856 3178 ft 229 kts 270°
2026-05-05 13:18 38.09837 24.08931 3055 ft 233 kts 237°
2026-05-05 13:18 38.08665 24.07491 2906 ft 236 kts 219°
2026-05-05 13:19 38.07374 24.06287 2777 ft 223 kts 217°
2026-05-05 13:19 38.06148 24.05197 2656 ft 208 kts 217°
2026-05-05 13:19 38.05019 24.04162 2562 ft 190 kts 218°
2026-05-05 13:19 38.04029 24.03221 2426 ft 168 kts 219°
2026-05-05 13:20 38.03138 24.02370 2238 ft 152 kts 219°
2026-05-05 13:20 38.02348 24.01615 2141 ft 138 kts 220°
2026-05-05 13:20 38.01581 24.00879 1998 ft 139 kts 219°
2026-05-05 13:20 38.00826 24.00159 1825 ft 134 kts 219°
2026-05-05 13:21 38.00073 23.99440 1659 ft 136 kts 219°
2026-05-05 13:21 37.99325 23.98725 1472 ft 132 kts 219°
2026-05-05 13:21 37.98588 23.98019 1302 ft 133 kts 218°
2026-05-05 13:21 37.97846 23.97311 1129 ft 134 kts 216°
2026-05-05 13:22 37.97108 23.96608 950 ft 132 kts 215°
2026-05-05 13:22 37.96389 23.95911 739 ft 129 kts 215°
2026-05-05 13:22 37.95668 23.95193 593 ft 134 kts 214°
2026-05-05 13:22 37.94934 23.94506 379 ft 130 kts 213°
2026-05-05 13:23 37.94218 23.93838 290 ft 121 kts 214°
2026-05-05 13:23 37.93693 23.93358 284 ft 64 kts 216°
2026-05-05 13:23 37.93403 23.93150 278 ft 40 kts 196°
2026-05-05 13:23 37.93346 23.93136 277 ft 0 kts 184°
2026-05-05 13:24 37.93339 23.93136 277 ft 1 kts 182°
2026-05-05 13:24 37.93296 23.93131 276 ft 10 kts 178°
2026-05-05 13:24 37.93247 23.93206 276 ft 14 kts 105°
2026-05-05 13:24 37.93249 23.93334 277 ft 16 kts 60°
2026-05-05 13:25 37.93319 23.93418 280 ft 13 kts 36°
2026-05-05 13:25 37.93374 23.93515 278 ft 15 kts 98°
2026-05-05 13:25 37.93309 23.93637 279 ft 19 kts 128°
2026-05-05 13:25 37.93219 23.93783 279 ft 23 kts 126°
2026-05-05 13:26 37.93122 23.93958 280 ft 25 kts 128°
2026-05-05 13:26 37.93146 23.94098 281 ft 17 kts 26°
2026-05-05 13:26 37.93253 23.94202 284 ft 21 kts 39°
2026-05-05 13:26 37.93266 23.94313 283 ft 12 kts 127°
2026-05-05 13:27 37.93205 23.94417 287 ft 17 kts 124°
2026-05-05 13:27 37.93170 23.94559 287 ft 16 kts 57°
2026-05-05 13:27 37.93270 23.94619 286 ft 16 kts
2026-05-05 13:27 37.93330 23.94580 286 ft 8 kts 302°
2026-05-05 13:28 37.93334 23.94572 288 ft 0 kts 304°